Saranac Lake, NY

7:14 PM EDT on May 28, 2017 (GMT -0400)
Adirondack Regional

Weather History for KSLK - June, 2013

Change the Weather History Date:

Sunday, June 9, 2013

  Actual Average Record
Temperature  
Mean Temperature 59 °F 58 °F  
Max Temperature 72 °F 71 °F 87 °F (2005)
Min Temperature 46 °F 46 °F 27 °F (1983)
Degree Days  
Heating Degree Days 6 8  
Month to date heating degree days 79  
Since 1 June heating degree days 79  
Since 1 July heating degree days 9313  
Cooling Degree Days 0 1  
Month to date cooling degree days 8 8  
Year to date cooling degree days 18 11  
Since 1 June cooling degree days 8 8  
Growing Degree Days 10 (Base 50)    
Moisture  
Dew Point 51 °F    
Average Humidity 70    
Maximum Humidity 100    
Minimum Humidity 40    
Precipitation  
Precipitation 0.00 in 0.14 in 1.57 in (2004)
Month to date precipitation 2.70 1.16  
Year to date precipitation 13.70 13.51  
Sea Level Pressure  
Sea Level Pressure 30.12 in    
Wind  
Wind Speed 5 mph (WSW)    
Max Wind Speed 10 mph    
Max Gust Speed 21 mph    
Visibility 9 miles    
Events      
T = Trace of Precipitation, MM = Missing Value Source: NWS Daily Summary

Daily Weather History Graph

Daily Weather History Graph

Search for Another Location

Airport or City:

Trip Planner

Search our weather history database for the weather conditions in past years. The results will help you decide how hot, cold, wet, or windy it might be!

Date:

Astronomy

Jun. 09, 2013 Rise Set
Actual Time 5:12 AM EDT 8:40 PM EDT
Civil Twilight 4:36 AM EDT 9:16 PM EDT
Nautical Twilight 3:48 AM EDT 10:04 PM EDT
Astronomical Twilight 2:47 AM EDT 11:05 PM EDT
Moon 6:09 AM EDT (6/9) 9:22 PM EDT (6/9)
Length of Visible Light 16h 40m
Length of Day
15h 27m
New Moon, 1% of the Moon is Illuminated
Jun 9
New Moon
Jun 16
First Quarter
Jun 23
Full
Jun 30
Last Quarter
Jul 8
New

Hourly Weather History & Observations

Time (EDT) Temp. Dew Point Humidity Pressure Visibility Wind Dir Wind Speed Gust Speed Precip Events Conditions
12:51 AM 54.0 °F 53.1 °F 97% 30.05 in 4.0 mi WSW 4.6 mph - N/A   Overcast
1:51 AM 54.0 °F 53.1 °F 97% 30.06 in 6.0 mi WSW 6.9 mph - N/A   Overcast
2:51 AM 54.0 °F 53.1 °F 97% 30.05 in 10.0 mi WSW 4.6 mph - N/A   Overcast
3:51 AM 54.0 °F 52.0 °F 93% 30.06 in 10.0 mi Calm Calm - N/A   Overcast
4:51 AM 54.0 °F 53.1 °F 97% 30.07 in 9.0 mi WSW 5.8 mph - N/A   Overcast
5:51 AM 54.0 °F 53.1 °F 97% 30.08 in 5.0 mi SW 6.9 mph - N/A   Overcast
6:51 AM 55.0 °F 53.1 °F 93% 30.09 in 7.0 mi WSW 6.9 mph - N/A   Overcast
7:51 AM 55.0 °F 53.1 °F 93% 30.11 in 10.0 mi WSW 5.8 mph - N/A   Overcast
8:30 AM 55.4 °F 53.6 °F 94% 30.12 in 10.0 mi WSW 6.9 mph - N/A   Overcast
8:51 AM 57.0 °F 53.1 °F 87% 30.13 in 10.0 mi WSW 5.8 mph 16.1 mph N/A   Overcast
9:36 AM 57.2 °F 53.6 °F 88% 30.13 in 10.0 mi WSW 8.1 mph 16.1 mph N/A   Overcast
9:51 AM 57.9 °F 52.0 °F 81% 30.13 in 10.0 mi WSW 10.4 mph 19.6 mph N/A   Overcast
10:18 AM 60.8 °F 51.8 °F 72% 30.13 in 10.0 mi WSW 10.4 mph 17.3 mph N/A   Overcast
10:39 AM 60.8 °F 51.8 °F 72% 30.13 in 10.0 mi Variable 5.8 mph 19.6 mph N/A   Mostly Cloudy
10:51 AM 62.1 °F 52.0 °F 70% 30.14 in 10.0 mi WNW 9.2 mph 16.1 mph N/A   Mostly Cloudy
10:59 AM 62.6 °F 51.8 °F 68% 30.13 in 10.0 mi WSW 6.9 mph - N/A   Mostly Cloudy
11:27 AM 62.6 °F 51.8 °F 68% 30.14 in 10.0 mi WSW 6.9 mph - N/A   Mostly Cloudy
11:35 AM 64.4 °F 51.8 °F 64% 30.14 in 10.0 mi Variable 5.8 mph 16.1 mph N/A   Mostly Cloudy
11:51 AM 64.9 °F 51.1 °F 61% 30.13 in 10.0 mi Variable 3.5 mph - N/A   Partly Cloudy
12:51 PM 66.9 °F 50.0 °F 54% 30.12 in 10.0 mi Variable 5.8 mph - N/A   Mostly Cloudy
1:51 PM 69.1 °F 48.9 °F 49% 30.12 in 10.0 mi WNW 9.2 mph 20.7 mph N/A   Mostly Cloudy
2:51 PM 71.1 °F 46.9 °F 42% 30.12 in 10.0 mi Variable 5.8 mph - N/A   Partly Cloudy
3:51 PM 71.1 °F 46.9 °F 42% 30.12 in 10.0 mi Variable 6.9 mph 17.3 mph N/A   Scattered Clouds
4:51 PM 71.1 °F 46.9 °F 42% 30.12 in 10.0 mi Variable 4.6 mph - N/A   Clear
5:51 PM 70.0 °F 46.9 °F 44% 30.13 in 10.0 mi Variable 6.9 mph - N/A   Mostly Cloudy
6:51 PM 70.0 °F 44.1 °F 39% 30.14 in 10.0 mi Variable 5.8 mph - N/A   Clear
7:51 PM 66.0 °F 48.0 °F 52% 30.15 in 10.0 mi Calm Calm - N/A   Clear
8:51 PM 57.9 °F 52.0 °F 81% 30.17 in 10.0 mi Calm Calm - N/A   Clear
9:51 PM 52.0 °F 50.0 °F 93% 30.19 in 10.0 mi Calm Calm - N/A   Clear
10:51 PM 48.9 °F 48.0 °F 97% 30.22 in 6.0 mi Calm Calm - N/A   Clear
11:51 PM 48.0 °F 46.0 °F 93% 30.21 in 7.0 mi Calm Calm - N/A   Clear